カタログに戻る

ARIANE 5 DEB

SYLDA

運用中GTO
NORAD 26613·DEBRIS·🇫🇷 France

打ち上げ Nov 16, 2000 から Guiana Space Centre

Loading…

TLE

経年Source: Space-Track

元期: Sep 14, 2026, 13:12 UTC

1 26613U 00072F   26257.55061527  .00000210  00000-0  16642-2 0  9994
2 26613   7.0949 352.5588 7341147 214.9642 205.7951  2.03134511191134

AllMySatでARIANE 5 DEBをリアルタイム追跡

Download on the App Store